DW5244 Weather Reports


Display with metric or nautical units.
time (UTC)temp
F
wind
direction
speed
MPH
gust
MPH
rain 1hr
in
rain 24hr
in
rain mn
in
humidity
%
barometer
mb
20260904074534 79 360 15.0 19.0 0.00 0.09 0.00 53 1014.2
20260904073029 80 360 12.0 22.0 0.00 0.09 0.00 50 1014.3
20260904071525 81 360 16.0 23.0 0.00 0.09 0.00 47 1014.3
20260904070024 82 360 11.0 14.0 0.00 0.09 0.00 47 1014.2
20260904064522 82 360 10.0 13.0 0.00 0.09 0.00 47 1014.2
20260904063022 82 360 8.0 14.0 0.00 0.09 0.00 47 1014.2
20260904061537 82 360 11.0 15.0 0.00 0.09 0.00 47 1014.2
20260904060022 82 360 7.0 13.0 0.00 0.09 0.00 47 1014.2
20260904054522 81 360 7.0 13.0 0.00 0.09 0.00 48 1014.1
20260904053016 81 360 10.0 13.0 0.00 0.09 0.00 49 1014.1
20260904051514 81 360 9.0 13.0 0.00 0.09 0.00 49 1014.0
20260904050017 81 360 5.0 9.0 0.00 0.09 0.00 49 1013.7
20260904044510 80 360 3.0 4.0 0.00 0.09 0.09 50 1013.4
20260904043010 81 360 2.0 5.0 0.00 0.09 0.09 51 1013.5
20260904041508 82 344 0.0 3.0 0.00 0.09 0.09 47 1013.5
20260904040009 82 360 7.0 11.0 0.00 0.09 0.09 48 1013.4
20260904034508 82 360 10.0 13.0 0.00 0.09 0.09 47 1013.4
20260904033009 82 360 9.0 12.0 0.00 0.09 0.09 47 1013.2
20260904031507 82 360 10.0 15.0 0.00 0.09 0.09 49 1013.0
20260904030015 83 360 9.0 12.0 0.00 0.09 0.09 48 1012.8
20260904024507 83 360 8.0 12.0 0.00 0.09 0.09 47 1012.6
20260904023005 84 360 8.0 11.0 0.00 0.09 0.09 47 1012.5
20260904021508 84 344 8.0 10.0 0.00 0.09 0.09 46 1012.3
20260904020004 84 338 8.0 10.0 0.00 0.09 0.09 46 1012.3
20260904014506 85 360 7.0 10.0 0.00 0.09 0.09 45 1012.2
20260904013003 85 346 7.0 12.0 0.00 0.09 0.09 45 1012.2
20260904011503 85 360 9.0 13.0 0.00 0.09 0.09 44 1012.0
20260904010001 85 360 11.0 15.0 0.00 0.09 0.09 45 1011.9
20260904004501 85 348 13.0 17.0 0.02 0.09 0.09 45 1011.9
20260904003000 86 360 11.0 16.0 0.06 0.09 0.09 46 1011.9
20260904001600 84 125 13.0 17.0 0.09 0.09 0.09 46 1011.9
20260904000059 80 121 9.0 18.0 0.09 0.09 0.09 58 1012.0
20260903234558 75 360 9.0 13.0 0.07 0.07 0.07 72 1012.0
20260903233056 82 11 7.0 15.0 0.03 0.03 0.03 63 1011.8
20260903231604 92 184 13.0 25.0 0.00 0.00 0.00 32 1011.7
20260903230054 97 209 14.0 23.0 0.00 0.00 0.00 29 1011.7
20260903224553 97 165 4.0 11.0 0.00 0.13 0.00 29 1011.4
20260903223052 97 157 8.0 11.0 0.00 0.13 0.00 29 1011.7
20260903221552 95 130 7.0 15.0 0.00 0.13 0.00 31 1011.6
20260903220058 94 138 8.0 15.0 0.00 0.13 0.00 32 1011.8
20260903214548 93 140 12.0 20.0 0.00 0.13 0.00 32 1011.9
20260903213047 95 360 12.0 21.0 0.00 0.13 0.00 29 1011.8
20260903211548 99 315 2.0 12.0 0.00 0.13 0.00 25 1012.2
20260903210045 98 288 3.0 11.0 0.00 0.13 0.00 25 1012.5
20260903204542 100 289 9.0 13.0 0.00 0.13 0.00 25 1012.6
20260903203039 99 174 3.0 12.0 0.00 0.13 0.00 29 1012.7
20260903201537 99 311 11.0 17.0 0.00 0.13 0.00 26 1012.9
20260903200036 97 251 5.0 10.0 0.00 0.13 0.00 28 1013.1
20260903194533 96 263 7.0 16.0 0.00 0.13 0.00 29 1013.4
20260903193030 97 271 10.0 13.0 0.00 0.13 0.00 27 1013.5
20260903191541 95 288 8.0 12.0 0.00 0.13 0.00 30 1013.7
20260903190025 96 271 4.0 12.0 0.00 0.13 0.00 29 1014.0
20260903184529 96 267 10.0 14.0 0.00 0.13 0.00 30 1014.4
20260903183018 96 302 7.0 14.0 0.00 0.13 0.00 29 1014.8
20260903181514 95 198 2.0 8.0 0.00 0.13 0.00 34 1015.1
20260903180011 95 265 4.0 10.0 0.00 0.13 0.00 31 1015.4
20260903174507 93 225 1.0 6.0 0.00 0.13 0.00 34 1015.7
20260903173011 93 229 3.0 9.0 0.00 0.13 0.00 36 1016.0
20260903171614 90 256 3.0 7.0 0.00 0.13 0.00 36 1016.2
20260903170056 90 244 1.0 4.0 0.00 0.13 0.00 38 1016.5
20260903164603 88 240 1.0 5.0 0.00 0.13 0.00 42 1016.6
20260903163050 87 351 1.0 4.0 0.00 0.13 0.00 43 1016.6
20260903161552 85 355 0.0 4.0 0.00 0.13 0.00 48 1016.6
20260903160044 84 360 4.0 8.0 0.00 0.13 0.00 51 1016.7
20260903154542 82 355 6.0 9.0 0.00 0.13 0.00 54 1016.6
20260903153038 81 9 6.0 12.0 0.00 0.13 0.00 55 1016.6
20260903151534 79 329 5.0 12.0 0.00 0.13 0.00 59 1016.6
20260903150034 78 342 7.0 10.0 0.00 0.13 0.00 59 1016.6
20260903144528 77 344 7.0 11.0 0.00 0.13 0.00 59 1016.6
20260903143045 77 290 7.0 9.0 0.00 0.13 0.00 61 1016.6
20260903141519 76 360 7.0 10.0 0.00 0.13 0.00 63 1016.6
20260903140022 75 355 7.0 12.0 0.00 0.13 0.00 64 1016.7
20260903134510 74 340 8.0 11.0 0.00 0.13 0.00 64 1016.6
20260903133009 74 326 5.0 11.0 0.00 0.13 0.00 65 1016.5
20260903131504 73 321 3.0 9.0 0.00 0.13 0.00 65 1016.3
20260903130000 73 319 1.0 5.0 0.00 0.13 0.00 65 1016.0
20260903124559 73 347 3.0 8.0 0.00 0.13 0.00 66 1015.8
20260903123057 73 297 4.0 12.0 0.00 0.13 0.00 64 1015.7
20260903121555 74 360 8.0 11.0 0.00 0.13 0.00 63 1015.5
20260903120055 73 302 5.0 8.0 0.00 0.13 0.00 64 1015.5
20260903114555 73 332 2.0 10.0 0.00 0.13 0.00 64 1015.5
20260903113054 73 319 6.0 12.0 0.00 0.13 0.00 64 1015.4
20260903111603 73 360 8.0 12.0 0.00 0.13 0.00 64 1015.3
20260903110053 74 360 10.0 14.0 0.00 0.13 0.00 64 1015.2
20260903104653 73 325 6.0 11.0 0.00 0.13 0.00 64 1015.2
20260903103051 73 315 4.0 8.0 0.00 0.13 0.00 65 1015.2
20260903101556 73 319 7.0 11.0 0.00 0.13 0.00 65 1015.2
20260903100053 74 360 8.0 13.0 0.00 0.13 0.00 64 1015.2
20260903094551 74 330 7.0 12.0 0.00 0.13 0.00 64 1015.2
20260903093052 74 330 5.0 11.0 0.00 0.13 0.00 64 1015.2
20260903091545 74 338 10.0 13.0 0.00 0.13 0.00 62 1015.3
20260903090044 74 323 7.0 11.0 0.00 0.13 0.00 62 1015.2
20260903084543 74 360 8.0 11.0 0.00 0.13 0.00 61 1015.3
20260903083047 75 355 10.0 13.0 0.00 0.13 0.00 59 1015.2
20260903081544 75 335 5.0 11.0 0.00 0.13 0.00 60 1015.3
20260903080040 75 360 9.0 15.0 0.00 0.13 0.00 60 1015.3